Theta_e
318 319 320 321 321 320 321 320 321 321 321 320 320 321 321 321 321 321 321 321 321 321 321 320 320 320 320 321 320 322 322 322 318 340 349 350 348 351 350 351 349 349 345 344
321 319 320 321 320 320 320 319 320 321 320 320 320 321 321 322 322 321 322 322 322 321 321 321 321 321 321 321 321 323 325 325 323 322 332 350 350 347 347 349 352 349 348 346
320 321 320 319 320 320 320 320 319 319 320 321 321 321 323 323 323 323 323 322 321 321 321 321 321 321 321 323 323 323 324 328 328 330 326 342 347 349 349 348 349 349 350 349
320 320 320 319 319 319 319 320 320 321 321 321 322 323 324 324 324 324 323 323 321 321 321 321 321 322 322 322 322 322 322 322 324 325 325 332 341 345 345 343 349 350 350 348
320 320 319 319 319 320 320 321 321 321 322 322 322 323 324 325 325 324 323 321 321 320 321 322 322 322 321 321 322 322 322 322 322 323 325 329 323 339 345 345 345 346 348 348
319 319 320 320 320 321 321 321 321 322 322 323 323 324 324 324 323 322 322 321 320 320 320 320 321 321 321 321 321 322 322 322 323 322 325 326 330 326 341 343 344 345 345 347
319 319 320 320 320 320 321 322 324 326 325 325 325 325 325 323 321 321 321 320 320 320 320 320 320 320 320 321 321 321 322 322 324 323 324 327 327 333 331 340 344 343 343 346
322 322 322 322 321 321 322 322 324 328 327 325 324 326 324 321 320 320 320 320 320 319 318 319 319 319 319 320 320 320 320 321 321 323 323 326 327 331 334 336 337 343 344 343
321 321 320 321 321 320 320 321 322 324 323 324 323 322 321 321 321 321 320 319 318 318 317 316 317 318 318 318 318 318 318 319 320 323 323 326 327 327 332 336 336 336 341 341
320 322 321 322 321 320 320 320 322 321 325 324 322 321 320 321 320 319 318 317 317 317 317 317 317 318 317 317 317 318 318 318 318 320 322 322 325 328 330 334 333 336 339 340
320 322 323 322 322 320 319 320 320 320 325 324 321 320 320 319 319 318 317 316 316 317 317 317 317 317 317 317 317 317 317 317 317 317 319 321 322 325 330 331 335 336 337 339
320 322 323 322 321 320 319 319 322 325 321 321 322 321 321 319 318 317 317 317 316 317 317 317 317 317 317 316 316 316 316 315 315 316 316 318 320 321 324 326 330 331 332 332
319 321 323 322 321 320 320 318 318 319 322 323 325 321 318 319 320 317 317 316 316 317 317 316 317 317 317 316 315 315 314 314 314 314 314 315 317 318 320 325 327 328 330 327
317 320 323 325 324 322 321 320 318 318 320 318 318 318 319 320 318 317 316 317 317 317 317 315 315 315 314 315 315 315 315 315 314 315 315 314 315 316 317 320 326 328 328 320
317 319 319 319 320 320 321 321 320 318 317 318 317 317 317 317 318 318 318 317 316 315 315 314 314 314 313 313 312 312 311 311 312 312 313 313 314 315 316 319 320 324 327 327
318 319 318 320 319 319 319 319 319 317 317 316 316 316 316 317 317 317 316 315 315 314 314 313 312 311 311 310 309 308 307 307 307 308 310 311 311 313 314 316 319 319 324 327
319 319 319 320 318 318 318 318 318 317 316 315 315 316 317 318 318 316 315 314 313 313 312 311 310 310 309 308 307 306 305 304 305 305 306 307 308 309 310 314 316 319 320 325
318 318 319 320 318 323 318 316 317 318 318 317 317 318 318 316 314 314 313 313 312 311 310 309 308 307 306 304 304 303 303 303 303 303 304 305 305 308 309 312 314 316 319 320
316 317 320 319 319 318 316 318 319 319 318 319 319 317 315 314 313 313 313 312 310 309 309 308 306 305 303 302 302 302 302 302 301 302 303 304 305 305 307 307 311 314 316 318
315 315 318 317 321 318 320 318 317 317 317 318 316 315 315 313 315 314 311 310 310 309 307 305 303 301 300 299 299 299 300 300 299 300 302 303 304 303 304 307 309 311 315 316
318 318 320 318 316 315 319 318 316 318 320 316 314 314 313 313 312 311 311 310 308 307 306 303 300 299 298 298 298 298 298 299 299 299 299 300 301 302 304 304 307 308 311 315
320 319 319 317 317 318 317 317 318 318 316 314 313 312 311 311 310 310 310 309 307 305 303 300 299 297 297 297 298 298 298 299 300 300 300 299 299 301 304 305 305 306 309 314
319 319 319 319 320 318 317 317 316 315 314 313 312 311 311 310 310 309 309 307 305 303 300 298 297 297 297 297 298 298 300 301 302 302 301 301 300 299 300 303 304 305 306 308
317 316 319 317 317 317 317 315 314 313 313 312 310 310 309 309 309 308 307 305 303 300 298 297 296 296 297 298 299 299 301 303 304 303 302 301 300 300 300 300 301 303 304 306
315 315 316 316 315 316 315 314 314 312 311 309 310 309 308 309 308 307 305 303 300 298 297 296 295 295 297 298 299 300 303 304 305 305 303 302 301 300 300 300 300 301 303 306
313 313 316 317 315 314 314 313 312 311 309 309 309 308 308 308 306 304 303 300 298 296 295 295 295 296 297 297 298 302 304 304 306 305 302 300 299 299 300 300 300 301 302 304
Wind_Speed
16 11 13 16 17 18 18 12 12 7 4 5 6 9 12 17 17 16 16 16 16 14 13 14 15 16 16 14 20 19 19 22 22 20 30 32 35 37 36 40 42 37 41 42
12 13 16 14 13 7 9 9 13 12 11 9 10 13 14 15 17 19 18 17 16 12 13 11 10 9 9 13 18 16 13 16 24 22 24 33 34 36 37 42 39 41 42 45
14 12 11 8 5 7 11 12 13 13 12 6 8 16 19 19 24 24 17 11 8 13 12 10 11 14 12 9 8 8 10 8 12 15 21 27 33 35 35 36 39 42 39 46
13 15 5 8 10 12 11 12 13 9 10 10 12 14 16 14 13 14 15 14 11 16 16 15 13 14 16 17 19 18 20 20 19 22 23 24 32 40 45 44 41 40 42 44
14 13 14 11 12 11 11 9 9 8 12 14 16 12 14 15 16 2 14 16 14 10 12 16 16 16 17 16 14 17 20 23 26 27 27 30 34 36 41 40 42 42 41 46
17 20 7 11 11 4 7 9 12 15 14 14 20 18 15 7 10 9 10 9 9 9 9 11 13 15 15 14 16 21 19 23 25 28 33 33 37 36 38 43 44 42 46 47
14 16 14 13 13 11 12 12 10 12 11 12 9 6 8 6 10 7 6 6 5 7 9 12 15 19 20 20 17 21 22 25 21 22 34 37 35 38 38 45 45 46 45 51
12 10 2 13 6 6 10 12 7 9 10 13 17 7 7 1 9 10 5 7 6 7 10 11 15 16 17 20 21 22 23 25 28 29 31 38 36 31 37 39 50 47 47 54
9 13 3 3 6 4 7 10 11 9 12 11 12 18 13 11 10 11 7 10 10 10 10 16 19 14 18 19 20 19 24 25 26 27 31 33 34 33 32 38 42 52 48 51
7 11 14 13 6 11 13 10 8 6 4 8 9 7 5 9 5 2 8 12 10 12 16 15 13 16 16 18 22 22 21 22 24 27 30 30 32 30 31 35 41 44 48 46
9 8 12 9 7 11 8 9 11 11 7 4 5 7 8 7 5 7 10 14 15 16 15 16 17 19 20 21 22 24 22 22 23 27 29 30 31 32 30 26 33 35 39 38
2 4 11 17 15 11 11 11 10 6 10 10 10 14 16 5 6 11 15 16 16 14 16 20 21 21 21 24 25 24 24 22 24 27 29 30 29 32 32 34 26 30 36 41
2 5 9 13 12 13 10 13 12 10 10 15 12 9 14 16 14 15 15 19 20 18 21 20 22 25 26 26 27 28 30 30 28 28 30 31 29 32 29 25 27 25 26 29
3 8 11 10 3 8 9 15 15 15 12 14 16 19 15 15 12 15 17 17 19 21 25 27 27 30 32 30 27 26 26 25 26 27 27 30 31 29 32 29 26 23 19 16
7 12 15 17 20 12 15 19 20 18 17 17 16 18 17 16 14 14 17 21 23 28 31 32 33 30 30 31 32 34 35 36 34 34 34 29 27 31 33 29 29 31 23 27
8 11 12 15 19 19 21 19 23 20 19 18 19 19 18 13 16 16 19 24 28 30 30 30 34 35 34 35 43 50 58 59 54 51 47 39 37 32 30 34 31 26 27 21
3 5 6 13 16 15 16 19 21 17 15 16 15 13 13 13 16 21 25 28 27 26 30 34 35 35 39 45 46 47 50 52 50 52 56 52 50 47 46 32 34 31 29 29
7 4 4 6 9 6 11 7 5 7 9 7 9 11 12 17 24 26 26 21 26 31 34 35 39 39 43 49 47 46 45 44 43 43 43 44 45 42 46 44 29 37 32 29
12 8 3 3 6 13 14 3 2 5 7 16 12 13 18 24 27 23 23 30 32 34 36 33 37 49 48 45 44 43 42 42 43 41 41 41 37 46 49 47 36 31 40 30
12 14 6 3 4 3 7 5 4 5 7 10 12 13 15 22 13 13 33 33 35 31 33 43 56 47 44 44 42 40 42 41 42 39 37 36 40 41 45 41 36 35 31 38
10 8 8 9 6 9 8 6 6 6 4 11 13 15 18 12 16 29 32 32 39 29 47 54 46 44 42 40 37 37 37 38 38 36 35 38 35 39 37 47 40 27 31 30
9 7 7 9 9 12 5 5 3 5 8 11 15 17 20 22 26 29 32 36 36 45 55 45 44 43 41 38 36 37 36 34 31 31 34 33 33 40 27 34 49 34 32 25
5 8 1 2 2 4 4 7 4 4 8 13 15 18 20 25 28 30 34 35 38 49 44 43 41 43 40 36 31 33 30 26 27 32 33 33 28 29 34 40 29 40 34 30
6 12 3 5 5 3 15 4 4 5 10 12 15 18 20 24 27 33 31 35 47 43 42 42 41 39 41 34 28 27 24 24 32 33 33 30 28 30 27 30 33 33 41 34
3 6 7 7 6 3 10 7 8 9 10 13 15 18 21 23 27 28 32 42 43 42 42 38 38 38 37 32 31 27 20 30 34 33 32 31 30 24 26 24 31 30 36 38
7 4 3 4 7 4 4 4 8 8 12 14 17 20 20 22 25 30 36 41 41 41 38 38 37 35 33 32 32 20 21 29 35 26 27 25 19 19 21 19 22 26 29 43
Wind_Direction
198 225 217 222 217 246 281 305 308 201 176 219 243 273 284 282 281 275 271 264 259 257 261 245 240 247 251 252 276 273 281 284 266 249 244 246 247 248 236 230 228 229 226 234
238 226 248 236 256 252 282 283 278 290 298 284 265 272 275 271 268 264 268 270 270 277 277 285 302 286 279 272 257 257 279 292 297 281 251 244 249 252 250 239 229 228 232 237
241 231 202 281 279 260 255 257 271 269 276 262 294 272 256 248 241 242 240 237 246 241 250 272 285 302 315 333 332 326 317 317 303 295 274 259 250 249 244 242 239 231 231 235
249 261 225 259 247 237 246 238 240 268 279 266 267 292 296 290 269 251 237 230 52 27 4 352 356 345 330 325 325 323 315 311 315 302 289 278 257 251 249 247 238 235 231 232
256 230 254 208 246 239 249 315 329 294 277 279 273 268 267 254 241 163 61 46 25 11 351 349 338 325 317 310 312 318 308 306 311 305 297 286 272 262 254 251 242 236 234 228
282 295 265 258 237 304 335 309 285 271 259 258 259 250 262 274 55 69 58 31 11 357 344 326 311 304 302 323 311 310 315 315 303 295 289 284 276 270 257 251 245 242 238 235
256 272 267 237 248 252 240 230 262 264 237 247 264 349 281 346 99 79 51 6 14 2 346 322 315 314 315 314 306 306 311 306 309 307 306 290 276 270 263 251 247 242 240 235
273 252 343 -0 301 297 304 297 273 265 287 301 317 225 286 153 97 109 52 31 346 299 292 289 291 292 297 295 304 310 305 309 303 309 305 305 281 278 266 257 250 245 242 240
277 256 216 212 293 330 278 310 359 321 283 275 277 284 260 135 117 103 160 220 238 266 280 283 275 286 292 294 299 295 294 297 306 303 308 307 304 277 277 262 261 250 245 248
283 286 281 274 234 268 261 269 278 258 271 262 258 284 80 81 87 359 320 322 307 288 282 306 300 293 293 294 291 289 288 292 298 312 305 302 307 301 292 271 267 263 253 248
285 273 270 299 227 231 255 233 252 257 200 231 277 265 93 10 12 300 296 295 283 284 303 309 307 299 298 295 296 296 297 294 297 303 304 304 309 300 296 294 271 270 254 251
322 330 254 254 237 251 277 249 225 246 244 241 239 257 282 349 274 256 251 270 304 319 308 303 295 296 296 295 293 296 297 299 301 299 297 307 299 308 300 291 291 280 266 257
265 232 265 258 253 227 239 241 252 263 248 238 253 267 288 283 268 288 296 304 305 307 305 311 315 311 309 310 311 308 303 296 290 290 295 300 301 298 304 300 289 282 285 270
107 259 247 267 347 339 244 254 232 233 232 248 248 261 266 268 302 313 318 336 334 331 324 324 325 325 323 322 327 328 325 316 306 310 292 289 299 300 299 302 280 290 267 221
224 256 266 274 288 236 249 275 272 254 254 251 262 271 291 304 316 346 350 346 330 327 323 320 321 325 325 323 320 314 310 307 308 301 301 288 296 298 297 290 303 268 266 205
309 256 273 273 270 267 268 249 258 267 267 276 281 284 281 347 326 3 338 331 326 322 324 327 324 323 319 313 309 305 300 297 296 293 287 286 287 278 285 289 279 294 256 235
236 245 267 265 266 262 260 255 259 264 292 257 270 303 349 2 356 346 337 329 330 333 324 319 316 310 307 305 302 296 299 297 288 285 281 281 279 282 273 280 273 268 272 257
225 248 247 275 291 244 241 277 316 287 291 312 309 341 7 352 335 329 323 356 337 325 319 315 311 306 304 304 301 297 294 293 289 285 280 271 275 267 265 259 278 253 254 264
217 226 271 253 268 281 288 258 67 353 317 38 15 355 346 336 330 314 353 341 327 319 315 315 312 310 308 306 305 301 295 291 291 284 280 280 262 256 257 265 270 262 250 244
191 206 222 247 267 265 29 156 70 323 256 24 359 348 339 335 320 321 331 323 320 322 319 320 319 315 312 310 311 303 298 292 291 286 283 271 270 266 262 259 263 259 252 244
191 199 233 230 244 268 134 224 305 251 28 353 346 338 336 330 319 315 316 325 323 321 319 322 318 315 315 315 314 308 304 298 297 296 287 277 275 262 265 251 249 269 256 247
196 199 209 229 238 250 52 291 327 26 348 341 345 338 331 325 321 321 326 324 324 320 324 326 320 318 322 321 317 311 305 305 307 304 298 285 269 254 250 258 248 248 244 244
192 221 256 307 282 345 309 351 19 12 332 344 333 333 332 327 326 329 326 325 323 327 325 324 323 323 321 322 319 313 313 310 308 306 301 293 285 259 249 241 246 238 243 241
211 183 206 200 218 200 257 87 45 2 343 332 331 334 333 330 331 328 326 327 329 329 326 329 329 324 324 329 325 321 317 310 321 305 301 296 282 274 257 241 236 239 237 237
183 235 224 251 246 6 64 24 344 340 340 335 338 338 336 336 333 334 333 330 330 330 331 333 329 328 329 331 331 325 321 320 313 320 302 302 286 265 259 242 231 235 234 225
322 321 326 295 55 354 38 289 302 1 340 345 343 339 341 344 343 339 335 334 336 336 338 336 336 335 334 334 329 328 331 331 328 333 330 325 300 254 244 237 228 230 235 220